Palmer, AK

11:23 PM AKDT on March 24, 2017 (GMT -0800)
Palmer Municipal

Weather History for PAAQ - February, 2012

Change the Weather History Date:

Saturday, February 4, 2012

  Actual Average Record
Temperature  
Mean Temperature 10 °F -  
Max Temperature 19 °F 23 °F 48 °F (1982)
Min Temperature 0 °F 6 °F -34 °F (1999)
Degree Days  
Heating Degree Days 56    
Moisture  
Dew Point 5 °F    
Average Humidity 87    
Maximum Humidity 100    
Minimum Humidity 62    
Precipitation  
Precipitation 0.00 in - - ()
Sea Level Pressure  
Sea Level Pressure 30.07 in    
Wind  
Wind Speed 2 mph (NNE)    
Max Wind Speed 14 mph    
Max Gust Speed -    
Visibility 7 miles    
Events Fog , Snow    
Averages and records for this station are not official NWS values.
T = Trace of Precipitation, MM = Missing Value Source: NWS Daily Summary

Daily Weather History Graph

Daily Weather History Graph

Search for Another Location

Airport or City:

Trip Planner

Search our weather history database for the weather conditions in past years. The results will help you decide how hot, cold, wet, or windy it might be!

Date:

Astronomy

Feb. 04, 2012 Rise Set
Actual Time 9:12 AM AKST 5:09 PM AKST
Civil Twilight 8:22 AM AKST 5:59 PM AKST
Nautical Twilight 7:29 AM AKST 6:52 PM AKST
Astronomical Twilight 6:38 AM AKST 7:43 PM AKST
Moon 1:37 PM AKST (2/4) 7:26 AM AKST (2/4)
Length of Visible Light 9h 36m
Length of Day
7h 57m
Waxing Gibbous, 90% of the Moon is Illuminated
Feb 4
Waxing Gibbous
Feb 7
Full
Feb 14
Last Quarter
Feb 21
New
Feb 29
First Quarter

Hourly Weather History & Observations

Time (AKST) Temp. Windchill Dew Point Humidity Pressure Visibility Wind Dir Wind Speed Gust Speed Precip Events Conditions
12:03 AM 6.8 °F - 6.8 °F 100% 29.80 in 1.8 mi Calm Calm - N/A   Clear
12:15 AM 10.4 °F - 8.6 °F 92% 29.81 in 3.0 mi Calm Calm - N/A   Clear
12:53 AM 9.0 °F 0.6 °F 7.0 °F 92% 29.83 in 10.0 mi North 4.6 mph - N/A   Clear
1:53 AM 7.0 °F 0.1 °F 5.0 °F 92% 29.88 in 10.0 mi WNW 3.5 mph - N/A   Partly Cloudy
2:09 AM 6.8 °F - 3.2 °F 85% 29.91 in 10.0 mi Calm Calm - N/A   Mostly Cloudy
2:39 AM 8.6 °F - 6.8 °F 92% 29.95 in 10.0 mi Calm Calm - N/A   Overcast
2:53 AM 8.1 °F 1.4 °F 5.0 °F 87% 29.96 in 10.0 mi East 3.5 mph - N/A   Overcast
3:05 AM 8.6 °F - 6.8 °F 92% 29.97 in 10.0 mi Calm Calm - N/A   Overcast
3:19 AM 10.4 °F 4.0 °F 8.6 °F 92% 29.99 in 10.0 mi East 3.5 mph - N/A   Overcast
3:32 AM 10.4 °F - 8.6 °F 92% 30.00 in 10.0 mi Calm Calm - N/A   Overcast
3:43 AM 12.2 °F 4.3 °F 10.4 °F 92% 30.00 in 10.0 mi NE 4.6 mph - N/A   Overcast
3:53 AM 10.0 °F 0.4 °F 7.0 °F 87% 30.00 in 10.0 mi North 5.8 mph - N/A   Overcast
4:06 AM 8.6 °F - 6.8 °F 92% 30.01 in 10.0 mi Calm Calm - N/A   Overcast
4:46 AM 8.6 °F 0.1 °F 6.8 °F 92% 30.03 in 10.0 mi NW 4.6 mph - N/A   Partly Cloudy
4:53 AM 5.0 °F - 1.9 °F 87% 30.04 in 10.0 mi Calm Calm - N/A   Partly Cloudy
5:11 AM 6.8 °F -2.0 °F 3.2 °F 85% 30.05 in 10.0 mi NNE 4.6 mph - N/A   Mostly Cloudy
5:41 AM 6.8 °F - 3.2 °F 85% 30.06 in 10.0 mi Calm Calm - N/A   Scattered Clouds
5:53 AM 8.1 °F - 5.0 °F 87% 30.07 in 10.0 mi Calm Calm - N/A   Partly Cloudy
6:08 AM 8.6 °F 2.0 °F 6.8 °F 92% 30.08 in 10.0 mi North 3.5 mph - N/A   Mostly Cloudy
6:21 AM 8.6 °F 2.0 °F 6.8 °F 92% 30.08 in 1.8 mi NNE 3.5 mph - N/A   Overcast
6:30 AM 10.4 °F 4.0 °F 8.6 °F 92% 30.08 in 0.5 mi NNE 3.5 mph - N/A Fog Light Freezing Fog
6:53 AM 10.0 °F - 8.1 °F 92% 30.10 in 0.2 mi Calm Calm - N/A Fog Light Freezing Fog
7:20 AM 6.8 °F - 3.2 °F 85% 30.10 in 2.0 mi Calm Calm - N/A   Mostly Cloudy
7:22 AM 6.8 °F - 3.2 °F 85% 30.10 in 5.0 mi Calm Calm - N/A   Scattered Clouds
7:45 AM 5.0 °F -2.1 °F 3.2 °F 92% 30.11 in 1.5 mi East 3.5 mph - N/A   Scattered Clouds
7:48 AM 3.2 °F -4.2 °F 1.4 °F 92% 30.11 in 0.8 mi East 3.5 mph - N/A   Mist
7:53 AM 3.9 °F - 1.9 °F 91% 30.12 in 0.5 mi Calm Calm - N/A Fog Light Freezing Fog
8:53 AM 5.0 °F - 3.0 °F 92% 30.15 in 0.2 mi Calm Calm - N/A Fog Light Freezing Fog
9:24 AM 6.8 °F - 3.2 °F 85% 30.15 in 1.5 mi Calm Calm - N/A   Scattered Clouds
9:26 AM 5.0 °F -5.6 °F 1.4 °F 85% 30.15 in 5.0 mi NNE 5.8 mph - N/A   Scattered Clouds
9:53 AM 10.0 °F -2.9 °F 6.1 °F 84% 30.15 in 9.0 mi NNE 9.2 mph - 0.00 in Snow Light Snow
10:53 AM 12.0 °F -3.4 °F 7.0 °F 80% 30.16 in 10.0 mi North 13.8 mph - 0.00 in   Scattered Clouds
11:53 AM 12.9 °F -1.6 °F 7.0 °F 77% 30.18 in 10.0 mi North 12.7 mph - N/A   Mostly Cloudy
12:53 PM 12.9 °F 6.9 °F 8.1 °F 81% 30.22 in 10.0 mi ENE 3.5 mph - N/A   Scattered Clouds
1:53 PM 19.0 °F 8.2 °F 10.0 °F 68% 30.22 in 10.0 mi North 9.2 mph - N/A   Scattered Clouds
2:53 PM 19.0 °F 6.8 °F 9.0 °F 65% 30.19 in 10.0 mi NNW 11.5 mph - N/A   Scattered Clouds
3:53 PM 19.0 °F 8.2 °F 9.0 °F 65% 30.18 in 10.0 mi North 9.2 mph - N/A   Mostly Cloudy
4:53 PM 19.0 °F 6.8 °F 8.1 °F 62% 30.16 in 10.0 mi North 11.5 mph - N/A   Mostly Cloudy
5:53 PM 10.0 °F - 7.0 °F 87% 30.18 in 10.0 mi Calm Calm - N/A   Clear
6:53 PM 3.9 °F - 1.0 °F 88% 30.17 in 10.0 mi Calm Calm - N/A   Clear
7:53 PM 3.0 °F - 1.0 °F 91% 30.17 in 10.0 mi Calm Calm - N/A   Clear
8:53 PM 3.9 °F - 1.9 °F 91% 30.16 in 10.0 mi Calm Calm - N/A   Clear
9:13 PM 1.4 °F - -0.4 °F 92% 30.14 in 1.8 mi Calm Calm - N/A   Clear
9:22 PM 1.4 °F - -0.4 °F 92% 30.13 in 4.0 mi Calm Calm - N/A   Clear
9:53 PM -0.0 °F - -2.0 °F 91% 30.14 in 9.0 mi Calm Calm - 0.00 in   Clear
10:53 PM 6.1 °F - 3.0 °F 87% 30.12 in 10.0 mi Calm Calm - N/A   Mostly Cloudy
11:53 PM 8.1 °F -0.5 °F 5.0 °F 87% 30.12 in 10.0 mi ESE 4.6 mph - 0.00 in   Overcast